Location: Cañada de la Miga
(34.7595°N, 106.2317°W)
Time: 11:58:53
(UTC+00:00)

Transit 4A - Pass Details

Date: 10 December 2021
Orbit: 863 x 981 km, 66.8° (Epoch: 26 January)

Event Time Altitude Azimuth Distance (km) Brightness Sun altitude
Rises 00:09:47 0° 192° (SSW) 3,433 11.5 -3.7°
Reaches altitude 10° 00:12:17 10° 187° (S) 2,507 10.7 -4.2°
Maximum altitude 00:17:54 54° 112° (ESE) 1,063 8.0 -5.2°
Drops below altitude 10° 00:23:41 10° 36° (NE) 2,581 9.7 -6.3°
Enters shadow 00:25:46 - 33° (NNE) 3,358 10.3 -6.7°
